Location: Fort Worth, Tx
(32.7431°N, 97.3695°W)
Time: 20:26:17
(UTC-04:00)

S-56A Canister/Altair - Pass Details

Date: 27 February 2024
Orbit: 639 x 2488 km, 38.9° (Epoch: 17 April)

Event Time Altitude Azimuth Distance (km) Brightness Sun altitude
Rises 07:22:33 0° 201° (SSW) 5,553 11.7 -8.7°
Reaches altitude 10° 07:27:42 10° 187° (S) 4,226 11.3 -7.6°
Maximum altitude 07:35:04 21° 144° (SE) 2,886 11.0 -6.0°
Drops below altitude 10° 07:40:49 10° 99° (E) 3,186 12.7 -4.8°
Sets 07:43:58 0° 83° (E) 3,877 13.1 -4.2°
